| time (UTC) | temp C | wind direction | speed KPH | gust KPH | rain 1hr cm | rain 24hr cm | rain mn cm | humidity % | barometer mb |
| 20260505235046 | 28 | 194 | 4.8 | 16.1 | 0.00 | 0.00 | 0.00 | 72 | 1003.0 |
| 20260505234557 | 28 | 196 | 4.8 | 11.3 | 0.00 | 0.00 | 0.00 | 72 | 1002.9 |
| 20260505234505 | 28 | 154 | 4.8 | 11.3 | 0.00 | 0.00 | 0.00 | 72 | 1002.9 |
| 20260505234019 | 28 | 173 | 4.8 | 14.5 | 0.00 | 0.00 | 0.00 | 72 | 1002.9 |
| 20260505233536 | 28 | 184 | 8.0 | 14.5 | 0.00 | 0.00 | 0.00 | 71 | 1002.9 |
| 20260505233040 | 28 | 165 | 6.4 | 12.9 | 0.00 | 0.00 | 0.00 | 72 | 1002.9 |
| 20260505232556 | 28 | 178 | 6.4 | 17.7 | 0.00 | 0.00 | 0.00 | 71 | 1002.9 |
| 20260505232010 | 28 | 109 | 6.4 | 16.1 | 0.00 | 0.00 | 0.00 | 71 | 1002.9 |
| 20260505231528 | 28 | 200 | 8.0 | 16.1 | 0.00 | 0.00 | 0.00 | 71 | 1002.9 |
| 20260505231036 | 28 | 188 | 8.0 | 17.7 | 0.00 | 0.00 | 0.00 | 70 | 1002.9 |
| 20260505230556 | 28 | 212 | 9.7 | 17.7 | 0.00 | 0.00 | 0.00 | 70 | 1002.9 |
| 20260505230112 | 28 | 211 | 8.0 | 19.3 | 0.00 | 0.00 | 0.00 | 71 | 1002.9 |
| 20260505225508 | 28 | 177 | 9.7 | 19.3 | 0.00 | 0.00 | 0.00 | 71 | 1002.9 |
| 20260505225032 | 28 | 216 | 9.7 | 17.7 | 0.00 | 0.00 | 0.00 | 71 | 1002.8 |
| 20260505224541 | 28 | 190 | 9.7 | 17.7 | 0.00 | 0.00 | 0.00 | 70 | 1002.8 |
| 20260505224054 | 28 | 200 | 9.7 | 17.7 | 0.00 | 0.00 | 0.00 | 71 | 1002.8 |
| 20260505223508 | 28 | 215 | 6.4 | 19.3 | 0.00 | 0.00 | 0.00 | 71 | 1002.8 |
| 20260505223038 | 28 | 206 | 6.4 | 19.3 | 0.00 | 0.00 | 0.00 | 72 | 1002.7 |
| 20260505222540 | 28 | 155 | 8.0 | 22.5 | 0.00 | 0.00 | 0.00 | 71 | 1002.8 |
| 20260505222057 | 28 | 121 | 11.3 | 20.9 | 0.00 | 0.00 | 0.00 | 71 | 1002.8 |
| 20260505221511 | 28 | 165 | 8.0 | 19.3 | 0.00 | 0.00 | 0.00 | 72 | 1002.8 |
| 20260505221024 | 28 | 163 | 11.3 | 19.3 | 0.00 | 0.00 | 0.00 | 70 | 1002.8 |
| 20260505220533 | 28 | 192 | 8.0 | 20.9 | 0.00 | 0.00 | 0.00 | 70 | 1002.7 |
| 20260505220048 | 28 | 155 | 14.5 | 20.9 | 0.00 | 0.00 | 0.00 | 70 | 1002.7 |
| 20260505215540 | 28 | 198 | 11.3 | 19.3 | 0.00 | 0.00 | 0.00 | 70 | 1002.8 |
| 20260505215054 | 28 | 198 | 8.0 | 16.1 | 0.00 | 0.00 | 0.00 | 70 | 1002.8 |
| 20260505214508 | 28 | 155 | 12.9 | 24.1 | 0.00 | 0.00 | 0.00 | 71 | 1002.8 |
| 20260505214022 | 28 | 147 | 11.3 | 22.5 | 0.00 | 0.00 | 0.00 | 70 | 1002.7 |
| 20260505213533 | 28 | 131 | 11.3 | 22.5 | 0.00 | 0.00 | 0.00 | 70 | 1002.9 |
| 20260505213048 | 28 | 160 | 12.9 | 20.9 | 0.00 | 0.00 | 0.00 | 70 | 1003.0 |
| 20260505212558 | 28 | 202 | 14.5 | 20.9 | 0.00 | 0.00 | 0.00 | 69 | 1003.2 |
| 20260505212504 | 28 | 207 | 14.5 | 20.9 | 0.00 | 0.00 | 0.00 | 70 | 1003.2 |
| 20260505212014 | 28 | 167 | 12.9 | 24.1 | 0.00 | 0.00 | 0.00 | 69 | 1003.2 |
| 20260505211528 | 28 | 200 | 11.3 | 24.1 | 0.00 | 0.00 | 0.00 | 71 | 1003.4 |
| 20260505211038 | 28 | 182 | 12.9 | 19.3 | 0.00 | 0.00 | 0.00 | 69 | 1003.4 |
| 20260505210551 | 28 | 119 | 6.4 | 19.3 | 0.00 | 0.00 | 0.00 | 71 | 1003.4 |
| 20260505210044 | 28 | 188 | 12.9 | 20.9 | 0.00 | 0.00 | 0.00 | 70 | 1003.5 |
| 20260505205509 | 28 | 170 | 12.9 | 22.5 | 0.00 | 0.00 | 0.00 | 71 | 1003.6 |
| 20260505205016 | 28 | 142 | 12.9 | 19.3 | 0.00 | 0.00 | 0.00 | 70 | 1003.6 |
| 20260505204530 | 28 | 194 | 6.4 | 17.7 | 0.00 | 0.00 | 0.00 | 72 | 1003.8 |
| 20260505204042 | 28 | 185 | 9.7 | 17.7 | 0.00 | 0.00 | 0.00 | 71 | 1004.0 |
| 20260505203559 | 28 | 205 | 11.3 | 17.7 | 0.00 | 0.00 | 0.00 | 70 | 1004.0 |
| 20260505203010 | 28 | 189 | 11.3 | 17.7 | 0.00 | 0.00 | 0.00 | 70 | 1004.0 |
| 20260505202524 | 28 | 184 | 9.7 | 19.3 | 0.00 | 0.00 | 0.00 | 71 | 1004.1 |
| 20260505202034 | 28 | 154 | 11.3 | 16.1 | 0.00 | 0.00 | 0.00 | 72 | 1004.2 |
| 20260505201550 | 28 | 128 | 4.8 | 19.3 | 0.00 | 0.00 | 0.00 | 74 | 1004.3 |
| 20260505201059 | 28 | 164 | 11.3 | 19.3 | 0.00 | 0.00 | 0.00 | 73 | 1004.4 |
| 20260505201004 | 27 | 182 | 11.3 | 19.3 | 0.00 | 0.00 | 0.00 | 73 | 1004.4 |
| 20260505200515 | 27 | 226 | 11.3 | 19.3 | 0.00 | 0.00 | 0.00 | 73 | 1004.5 |
| 20260505200015 | 27 | 186 | 11.3 | 19.3 | 0.00 | 0.00 | 0.00 | 73 | 1004.6 |
| 20260505195523 | 27 | 182 | 9.7 | 19.3 | 0.00 | 0.00 | 0.00 | 73 | 1004.5 |
| 20260505195042 | 27 | 156 | 12.9 | 27.4 | 0.00 | 0.00 | 0.00 | 73 | 1004.6 |
| 20260505194550 | 27 | 196 | 11.3 | 27.4 | 0.00 | 0.00 | 0.00 | 73 | 1004.6 |
| 20260505194007 | 27 | 195 | 8.0 | 16.1 | 0.00 | 0.00 | 0.00 | 74 | 1004.7 |
| 20260505193521 | 27 | 169 | 11.3 | 22.5 | 0.00 | 0.00 | 0.00 | 73 | 1004.9 |
| 20260505193034 | 27 | 192 | 12.9 | 22.5 | 0.00 | 0.00 | 0.00 | 74 | 1004.8 |
| 20260505192551 | 27 | 177 | 11.3 | 20.9 | 0.00 | 0.00 | 0.00 | 74 | 1004.8 |
| 20260505192005 | 27 | 185 | 11.3 | 20.9 | 0.00 | 0.00 | 0.00 | 75 | 1004.9 |
| 20260505191526 | 27 | 233 | 12.9 | 20.9 | 0.00 | 0.00 | 0.00 | 75 | 1004.9 |
| 20260505191029 | 27 | 179 | 14.5 | 17.7 | 0.00 | 0.00 | 0.00 | 75 | 1004.9 |
| 20260505190543 | 27 | 204 | 8.0 | 19.3 | 0.00 | 0.00 | 0.00 | 76 | 1005.0 |
| 20260505190035 | 26 | 180 | 14.5 | 20.9 | 0.00 | 0.00 | 0.00 | 75 | 1005.1 |
| 20260505185550 | 26 | 146 | 11.3 | 20.9 | 0.00 | 0.00 | 0.00 | 76 | 1005.1 |
| 20260505185005 | 26 | 182 | 11.3 | 20.9 | 0.00 | 0.00 | 0.00 | 76 | 1005.2 |
| 20260505184520 | 26 | 153 | 9.7 | 30.6 | 0.00 | 0.00 | 0.00 | 77 | 1005.2 |
| 20260505184032 | 26 | 201 | 11.3 | 30.6 | 0.00 | 0.00 | 0.00 | 78 | 1005.3 |
| 20260505183546 | 26 | 192 | 9.7 | 22.5 | 0.00 | 0.00 | 0.00 | 77 | 1005.3 |
| 20260505183056 | 26 | 223 | 8.0 | 25.7 | 0.00 | 0.00 | 0.00 | 78 | 1005.2 |
| 20260505183004 | 26 | 205 | 8.0 | 25.7 | 0.00 | 0.00 | 0.00 | 78 | 1005.4 |
| 20260505182511 | 26 | 215 | 12.9 | 25.7 | 0.00 | 0.00 | 0.00 | 79 | 1005.4 |
| 20260505182029 | 26 | 201 | 11.3 | 19.3 | 0.00 | 0.00 | 0.00 | 80 | 1005.4 |
| 20260505181543 | 25 | 213 | 6.4 | 17.7 | 0.00 | 0.00 | 0.00 | 80 | 1005.7 |
| 20260505181054 | 25 | 215 | 12.9 | 22.5 | 0.00 | 0.00 | 0.00 | 79 | 1005.8 |
| 20260505180507 | 25 | 222 | 12.9 | 22.5 | 0.00 | 0.00 | 0.00 | 80 | 1005.8 |
| 20260505180059 | 25 | 181 | 8.0 | 25.7 | 0.00 | 0.00 | 0.00 | 82 | 1005.9 |
| 20260505180001 | 25 | 163 | 9.7 | 25.7 | 0.00 | 0.00 | 0.00 | 83 | 1005.9 |
| 20260505175515 | 25 | 245 | 9.7 | 25.7 | 0.00 | 0.00 | 0.00 | 82 | 1005.9 |
| 20260505175030 | 25 | 213 | 8.0 | 19.3 | 0.00 | 0.00 | 0.00 | 81 | 1006.1 |
| 20260505174547 | 25 | 254 | 9.7 | 19.3 | 0.00 | 0.00 | 0.00 | 82 | 1006.1 |
| 20260505174055 | 25 | 214 | 11.3 | 19.3 | 0.00 | 0.00 | 0.00 | 83 | 1006.1 |
| 20260505174002 | 25 | 211 | 11.3 | 19.3 | 0.00 | 0.00 | 0.00 | 84 | 1006.1 |
| 20260505173515 | 24 | 205 | 4.8 | 20.9 | 0.00 | 0.00 | 0.00 | 86 | 1006.0 |
| 20260505173026 | 23 | 195 | 11.3 | 20.9 | 0.00 | 0.00 | 0.00 | 86 | 1006.0 |
| 20260505172535 | 23 | 202 | 11.3 | 20.9 | 0.00 | 0.00 | 0.00 | 86 | 1006.2 |
| 20260505172049 | 23 | 244 | 6.4 | 17.7 | 0.00 | 0.00 | 0.00 | 86 | 1006.2 |
| 20260505171507 | 23 | 229 | 9.7 | 22.5 | 0.00 | 0.00 | 0.00 | 86 | 1006.2 |
| 20260505171023 | 23 | 206 | 11.3 | 22.5 | 0.00 | 0.00 | 0.00 | 86 | 1006.2 |
| 20260505170528 | 23 | 231 | 12.9 | 22.5 | 0.00 | 0.00 | 0.00 | 86 | 1006.2 |
| 20260505170031 | 23 | 209 | 11.3 | 24.1 | 0.00 | 0.00 | 0.00 | 87 | 1006.2 |
| 20260505165538 | 22 | 217 | 14.5 | 24.1 | 0.00 | 0.00 | 0.00 | 87 | 1006.2 |
| 20260505165049 | 22 | 198 | 11.3 | 19.3 | 0.00 | 0.00 | 0.00 | 88 | 1006.4 |
| 20260505164602 | 22 | 190 | 11.3 | 19.3 | 0.00 | 0.00 | 0.00 | 89 | 1006.3 |
| 20260505164501 | 22 | 167 | 11.3 | 19.3 | 0.00 | 0.00 | 0.00 | 89 | 1006.4 |
| 20260505164015 | 22 | 190 | 12.9 | 19.3 | 0.00 | 0.00 | 0.00 | 89 | 1006.4 |
| 20260505163525 | 22 | 186 | 11.3 | 16.1 | 0.00 | 0.00 | 0.00 | 90 | 1006.3 |
| 20260505163041 | 22 | 182 | 9.7 | 16.1 | 0.00 | 0.00 | 0.00 | 90 | 1006.3 |
| 20260505162549 | 22 | 220 | 6.4 | 16.1 | 0.00 | 0.00 | 0.00 | 91 | 1006.2 |
| 20260505162007 | 21 | 226 | 9.7 | 16.1 | 0.00 | 0.00 | 0.00 | 91 | 1006.2 |
| 20260505161536 | 21 | 187 | 9.7 | 20.9 | 0.00 | 0.00 | 0.00 | 91 | 1006.1 |
| 20260505161029 | 21 | 234 | 11.3 | 20.9 | 0.00 | 0.00 | 0.00 | 91 | 1006.1 |
| 20260505160545 | 21 | 196 | 11.3 | 17.7 | 0.00 | 0.00 | 0.00 | 92 | 1006.1 |
| 20260505153059 | 21 | 191 | 11.3 | 19.3 | 0.00 | 0.00 | 0.00 | 93 | 1006.0 |
| 20260505153012 | 21 | 217 | 11.3 | 19.3 | 0.00 | 0.00 | 0.00 | 94 | 1006.0 |
| 20260505152515 | 21 | 184 | 11.3 | 22.5 | 0.00 | 0.00 | 0.00 | 93 | 1006.0 |
| 20260505152030 | 20 | 205 | 11.3 | 22.5 | 0.00 | 0.00 | 0.00 | 93 | 1006.1 |
| 20260505151543 | 20 | 188 | 9.7 | 19.3 | 0.00 | 0.00 | 0.00 | 94 | 1006.0 |
| 20260505151001 | 20 | 195 | 8.0 | 19.3 | 0.00 | 0.00 | 0.00 | 94 | 1006.2 |
| 20260505150513 | 20 | 202 | 8.0 | 19.3 | 0.00 | 0.00 | 0.00 | 94 | 1006.1 |
| 20260505140536 | 20 | 233 | 14.5 | 24.1 | 0.00 | 0.00 | 0.00 | 93 | 1006.1 |
| 20260505125037 | 20 | 221 | 14.5 | 22.5 | 0.00 | 0.00 | 0.00 | 92 | 1005.2 |
| 20260505124550 | 20 | 197 | 9.7 | 17.7 | 0.00 | 0.00 | 0.00 | 92 | 1005.1 |
| 20260505124007 | 20 | 207 | 11.3 | 19.3 | 0.00 | 0.00 | 0.00 | 92 | 1005.1 |
| 20260505123514 | 20 | 190 | 8.0 | 30.6 | 0.00 | 0.00 | 0.00 | 92 | 1005.0 |
| 20260505123028 | 20 | 187 | 12.9 | 30.6 | 0.00 | 0.00 | 0.00 | 92 | 1005.0 |
| 20260505122540 | 20 | 215 | 11.3 | 19.3 | 0.00 | 0.00 | 0.00 | 92 | 1005.0 |
| 20260505122054 | 20 | 185 | 11.3 | 22.5 | 0.00 | 0.00 | 0.00 | 92 | 1005.0 |
| 20260505121518 | 20 | 204 | 16.1 | 29.0 | 0.00 | 0.00 | 0.00 | 92 | 1004.8 |
| 20260505121020 | 20 | 212 | 14.5 | 24.1 | 0.00 | 0.00 | 0.00 | 92 | 1004.9 |
| 20260505120534 | 20 | 207 | 12.9 | 20.9 | 0.00 | 0.00 | 0.00 | 92 | 1004.7 |
| 20260505120030 | 20 | 188 | 11.3 | 20.9 | 0.00 | 0.00 | 0.00 | 92 | 1004.7 |
| 20260505115538 | 20 | 204 | 11.3 | 24.1 | 0.00 | 0.00 | 0.00 | 92 | 1004.7 |
| 20260505115054 | 20 | 198 | 14.5 | 24.1 | 0.00 | 0.00 | 0.00 | 92 | 1004.7 |
| 20260505114510 | 20 | 219 | 12.9 | 24.1 | 0.00 | 0.00 | 0.00 | 92 | 1004.6 |
| 20260505114022 | 20 | 211 | 14.5 | 25.7 | 0.00 | 0.00 | 0.00 | 92 | 1004.6 |
| 20260505113536 | 20 | 227 | 8.0 | 20.9 | 0.00 | 0.00 | 0.00 | 92 | 1004.6 |
| 20260505113046 | 20 | 202 | 11.3 | 20.9 | 0.00 | 0.00 | 0.00 | 92 | 1004.5 |
| 20260505112505 | 20 | 184 | 9.7 | 17.7 | 0.00 | 0.00 | 0.00 | 92 | 1004.4 |
| 20260505112014 | 20 | 182 | 9.7 | 17.7 | 0.00 | 0.00 | 0.00 | 92 | 1004.5 |
| 20260505111530 | 20 | 191 | 11.3 | 19.3 | 0.00 | 0.00 | 0.00 | 92 | 1004.6 |
| 20260505111040 | 20 | 194 | 12.9 | 19.3 | 0.00 | 0.00 | 0.00 | 92 | 1004.6 |
| 20260505110558 | 20 | 223 | 9.7 | 16.1 | 0.00 | 0.00 | 0.00 | 92 | 1004.6 |
| 20260505102039 | 20 | 213 | 11.3 | 19.3 | 0.00 | 0.00 | 0.00 | 91 | 1004.8 |
| 20260505101552 | 20 | 217 | 9.7 | 17.7 | 0.00 | 0.00 | 0.00 | 91 | 1004.8 |
| 20260505101009 | 20 | 196 | 11.3 | 17.7 | 0.00 | 0.00 | 0.00 | 91 | 1004.8 |
| 20260505100523 | 20 | 195 | 8.0 | 17.7 | 0.00 | 0.00 | 0.00 | 91 | 1004.8 |
| 20260505100022 | 20 | 202 | 8.0 | 16.1 | 0.00 | 0.00 | 0.00 | 91 | 1004.8 |
| 20260505095545 | 20 | 179 | 6.4 | 16.1 | 0.00 | 0.00 | 0.00 | 91 | 1004.9 |
| 20260505095051 | 20 | 207 | 9.7 | 19.3 | 0.00 | 0.00 | 0.00 | 91 | 1005.1 |
| 20260505094511 | 20 | 193 | 9.7 | 27.4 | 0.00 | 0.00 | 0.00 | 91 | 1005.1 |
| 20260505094025 | 20 | 180 | 11.3 | 27.4 | 0.00 | 0.00 | 0.00 | 91 | 1004.9 |
| 20260505093545 | 20 | 214 | 14.5 | 20.9 | 0.00 | 0.00 | 0.00 | 91 | 1004.9 |
| 20260505093057 | 20 | 200 | 9.7 | 20.9 | 0.00 | 0.00 | 0.00 | 91 | 1004.9 |
| 20260505092509 | 20 | 201 | 11.3 | 17.7 | 0.00 | 0.00 | 0.00 | 91 | 1004.9 |
| 20260505092019 | 20 | 173 | 9.7 | 17.7 | 0.00 | 0.00 | 0.00 | 91 | 1005.1 |
| 20260505091536 | 20 | 216 | 8.0 | 16.1 | 0.00 | 0.00 | 0.00 | 91 | 1005.1 |
| 20260505091047 | 20 | 198 | 9.7 | 20.9 | 0.00 | 0.00 | 0.00 | 91 | 1005.0 |
| 20260505090503 | 20 | 187 | 9.7 | 20.9 | 0.00 | 0.00 | 0.00 | 91 | 1004.9 |
| 20260505090104 | 20 | 201 | 11.3 | 22.5 | 0.00 | 0.00 | 0.00 | 91 | 1004.9 |
| 20260505085509 | 20 | 175 | 12.9 | 22.5 | 0.00 | 0.00 | 0.00 | 91 | 1005.1 |
| 20260505085023 | 20 | 209 | 11.3 | 24.1 | 0.00 | 0.00 | 0.00 | 91 | 1005.2 |
| 20260505084548 | 20 | 196 | 12.9 | 24.1 | 0.00 | 0.00 | 0.00 | 91 | 1005.1 |
| 20260505084049 | 20 | 182 | 9.7 | 25.7 | 0.00 | 0.00 | 0.00 | 91 | 1005.1 |
| 20260505083502 | 20 | 226 | 9.7 | 17.7 | 0.00 | 0.00 | 0.00 | 90 | 1005.4 |
| 20260505083018 | 20 | 217 | 11.3 | 17.7 | 0.00 | 0.00 | 0.00 | 90 | 1005.4 |
| 20260505082528 | 20 | 138 | 6.4 | 16.1 | 0.00 | 0.00 | 0.00 | 90 | 1005.2 |
| 20260505082041 | 20 | 205 | 8.0 | 25.7 | 0.00 | 0.00 | 0.00 | 90 | 1005.4 |
| 20260505081602 | 20 | 188 | 12.9 | 25.7 | 0.00 | 0.00 | 0.00 | 90 | 1005.3 |
| 20260505081503 | 20 | 176 | 12.9 | 24.1 | 0.00 | 0.00 | 0.00 | 90 | 1005.4 |
| 20260505081018 | 20 | 165 | 9.7 | 24.1 | 0.00 | 0.00 | 0.00 | 90 | 1005.5 |
| 20260505080526 | 20 | 219 | 11.3 | 24.1 | 0.00 | 0.00 | 0.00 | 90 | 1005.5 |
| 20260505080036 | 20 | 181 | 8.0 | 24.1 | 0.00 | 0.00 | 0.00 | 90 | 1005.7 |
| 20260505075535 | 20 | 190 | 9.7 | 17.7 | 0.00 | 0.00 | 0.00 | 90 | 1005.7 |
| 20260505075048 | 20 | 129 | 6.4 | 17.7 | 0.00 | 0.00 | 0.00 | 90 | 1005.8 |
| 20260505074503 | 20 | 204 | 8.0 | 17.7 | 0.00 | 0.00 | 0.00 | 90 | 1005.8 |
| 20260505074013 | 20 | 202 | 8.0 | 17.7 | 0.00 | 0.00 | 0.00 | 90 | 1005.9 |
| 20260505073529 | 20 | 174 | 9.7 | 16.1 | 0.00 | 0.00 | 0.00 | 90 | 1005.7 |
| 20260505073043 | 20 | 136 | 4.8 | 20.9 | 0.00 | 0.00 | 0.00 | 90 | 1005.9 |
| 20260505072557 | 20 | 172 | 9.7 | 27.4 | 0.00 | 0.00 | 0.00 | 90 | 1006.1 |
| 20260505072010 | 20 | 169 | 11.3 | 27.4 | 0.00 | 0.00 | 0.00 | 89 | 1006.2 |
| 20260505071520 | 20 | 152 | 9.7 | 20.9 | 0.00 | 0.00 | 0.00 | 89 | 1006.2 |
| 20260505071035 | 21 | 175 | 11.3 | 20.9 | 0.00 | 0.00 | 0.00 | 89 | 1006.3 |
| 20260505070547 | 21 | 155 | 12.9 | 22.5 | 0.00 | 0.00 | 0.00 | 89 | 1006.4 |
| 20260505070043 | 21 | 167 | 12.9 | 25.7 | 0.00 | 0.00 | 0.00 | 89 | 1006.4 |
| 20260505065557 | 21 | 187 | 11.3 | 25.7 | 0.00 | 0.00 | 0.00 | 89 | 1006.5 |
| 20260505065008 | 21 | 175 | 12.9 | 24.1 | 0.00 | 0.00 | 0.00 | 89 | 1006.6 |
| 20260505064522 | 21 | 201 | 11.3 | 22.5 | 0.00 | 0.00 | 0.00 | 89 | 1006.7 |
| 20260505064032 | 21 | 196 | 9.7 | 24.1 | 0.00 | 0.00 | 0.00 | 89 | 1006.8 |
| 20260505063548 | 21 | 192 | 9.7 | 24.1 | 0.00 | 0.00 | 0.00 | 89 | 1006.8 |
| 20260505063002 | 21 | 150 | 8.0 | 27.4 | 0.00 | 0.00 | 0.00 | 89 | 1006.8 |
| 20260505062516 | 21 | 217 | 12.9 | 24.1 | 0.00 | 0.00 | 0.00 | 89 | 1006.8 |
| 20260505062027 | 21 | 211 | 9.7 | 29.0 | 0.00 | 0.00 | 0.00 | 88 | 1006.8 |
| 20260505061542 | 21 | 159 | 16.1 | 29.0 | 0.00 | 0.00 | 0.00 | 88 | 1006.8 |
| 20260505061052 | 21 | 205 | 12.9 | 25.7 | 0.00 | 0.00 | 0.00 | 88 | 1006.9 |
| 20260505060510 | 21 | 209 | 12.9 | 25.7 | 0.00 | 0.00 | 0.00 | 88 | 1007.0 |
| 20260505060104 | 21 | 162 | 9.7 | 22.5 | 0.00 | 0.00 | 0.00 | 88 | 1007.0 |
| 20260505060006 | 21 | 192 | 9.7 | 22.5 | 0.00 | 0.00 | 0.00 | 88 | 1007.0 |
| 20260505055516 | 21 | 168 | 11.3 | 20.9 | 0.00 | 0.00 | 0.00 | 88 | 1007.1 |
| 20260505055031 | 21 | 189 | 6.4 | 19.3 | 0.00 | 0.00 | 0.00 | 88 | 1007.1 |
| 20260505054552 | 21 | 163 | 11.3 | 25.7 | 0.00 | 0.00 | 0.00 | 88 | 1007.0 |
| 20260505054058 | 21 | 153 | 9.7 | 25.7 | 0.00 | 0.00 | 0.00 | 88 | 1007.0 |
| 20260505053514 | 21 | 160 | 9.7 | 24.1 | 0.00 | 0.00 | 0.00 | 88 | 1007.1 |
| 20260505053028 | 21 | 178 | 14.5 | 27.4 | 0.00 | 0.00 | 0.00 | 88 | 1007.1 |
| 20260505052536 | 21 | 187 | 12.9 | 20.9 | 0.00 | 0.00 | 0.00 | 88 | 1007.1 |
| 20260505052052 | 21 | 203 | 9.7 | 20.9 | 0.00 | 0.00 | 0.00 | 88 | 1007.2 |
| 20260505051506 | 21 | 166 | 6.4 | 19.3 | 0.00 | 0.00 | 0.00 | 88 | 1007.1 |
| 20260505051020 | 21 | 191 | 9.7 | 19.3 | 0.00 | 0.00 | 0.00 | 88 | 1007.1 |
| 20260505050530 | 21 | 175 | 9.7 | 22.5 | 0.00 | 0.00 | 0.00 | 88 | 1007.1 |
| 20260505041535 | 21 | 178 | 8.0 | 17.7 | 0.00 | 0.00 | 0.00 | 86 | 1007.0 |
| 20260505041045 | 21 | 163 | 9.7 | 17.7 | 0.00 | 0.00 | 0.00 | 86 | 1006.9 |
| 20260505040559 | 21 | 139 | 8.0 | 16.1 | 0.00 | 0.00 | 0.00 | 85 | 1007.0 |
| 20260505040502 | 21 | 135 | 9.7 | 16.1 | 0.00 | 0.00 | 0.00 | 85 | 1006.9 |
| 20260505040103 | 21 | 167 | 8.0 | 16.1 | 0.00 | 0.00 | 0.00 | 85 | 1007.0 |
| 20260505035513 | 21 | 170 | 6.4 | 14.5 | 0.00 | 0.00 | 0.00 | 85 | 1006.9 |
| 20260505035025 | 21 | 164 | 4.8 | 16.1 | 0.00 | 0.00 | 0.00 | 85 | 1006.9 |
| 20260505034535 | 21 | 76 | 6.4 | 16.1 | 0.00 | 0.00 | 0.00 | 84 | 1006.9 |
| 20260505034051 | 21 | 153 | 6.4 | 14.5 | 0.00 | 0.00 | 0.00 | 84 | 1006.8 |
| 20260505033508 | 21 | 203 | 6.4 | 16.1 | 0.00 | 0.00 | 0.00 | 84 | 1006.8 |
| 20260505033033 | 21 | 148 | 6.4 | 16.1 | 0.00 | 0.00 | 0.00 | 83 | 1006.8 |
| 20260505032537 | 21 | 151 | 1.6 | 11.3 | 0.00 | 0.00 | 0.00 | 83 | 1006.9 |
| 20260505032055 | 21 | 147 | 1.6 | 11.3 | 0.00 | 0.00 | 0.00 | 83 | 1006.9 |
| 20260505031514 | 21 | 184 | 4.8 | 11.3 | 0.00 | 0.00 | 0.00 | 82 | 1006.8 |
| 20260505031022 | 21 | 164 | 4.8 | 11.3 | 0.00 | 0.00 | 0.00 | 82 | 1006.8 |
| 20260505030543 | 22 | 167 | 3.2 | 12.9 | 0.00 | 0.00 | 0.00 | 82 | 1006.9 |
| 20260505030031 | 22 | 160 | 1.6 | 11.3 | 0.00 | 0.00 | 0.00 | 81 | 1007.0 |
| 20260505025548 | 22 | 176 | 3.2 | 12.9 | 0.00 | 0.00 | 0.00 | 81 | 1007.0 |
| 20260505025010 | 22 | 149 | 6.4 | 12.9 | 0.00 | 0.00 | 0.00 | 81 | 1007.1 |
| 20260505024530 | 22 | 181 | 6.4 | 16.1 | 0.00 | 0.00 | 0.00 | 80 | 1007.1 |
| 20260505024037 | 22 | 187 | 6.4 | 16.1 | 0.00 | 0.00 | 0.00 | 80 | 1007.0 |
| 20260505023551 | 22 | 173 | 6.4 | 14.5 | 0.00 | 0.00 | 0.00 | 80 | 1006.9 |
| 20260505023009 | 22 | 174 | 6.4 | 14.5 | 0.00 | 0.00 | 0.00 | 79 | 1006.9 |
| 20260505022523 | 22 | 203 | 6.4 | 9.7 | 0.00 | 0.00 | 0.00 | 78 | 1006.8 |
| 20260505022037 | 22 | 165 | 1.6 | 11.3 | 0.00 | 0.00 | 0.00 | 77 | 1006.8 |
| 20260505021549 | 22 | 171 | 3.2 | 9.7 | 0.00 | 0.00 | 0.00 | 77 | 1006.8 |
| 20260505021011 | 22 | 170 | 1.6 | 6.4 | 0.00 | 0.00 | 0.00 | 76 | 1006.8 |
| 20260505020521 | 22 | 133 | 3.2 | 9.7 | 0.00 | 0.00 | 0.00 | 76 | 1006.7 |
| 20260505020018 | 22 | 169 | 3.2 | 11.3 | 0.00 | 0.00 | 0.00 | 75 | 1006.6 |
| 20260505015525 | 23 | 157 | 0.0 | 4.8 | 0.00 | 0.00 | 0.00 | 75 | 1006.6 |
| 20260505015043 | 23 | 134 | 0.0 | 3.2 | 0.00 | 0.00 | 0.00 | 75 | 1006.5 |
| 20260505014604 | 23 | 163 | 0.0 | 8.0 | 0.00 | 0.00 | 0.00 | 74 | 1006.5 |
| 20260505014014 | 23 | 163 | 1.6 | 8.0 | 0.00 | 0.00 | 0.00 | 74 | 1006.6 |
| 20260505013523 | 23 | 190 | 1.6 | 11.3 | 0.00 | 0.00 | 0.00 | 74 | 1006.5 |
| 20260505013039 | 23 | 154 | 4.8 | 11.3 | 0.00 | 0.00 | 0.00 | 73 | 1006.5 |
| 20260505012551 | 23 | 192 | 3.2 | 11.3 | 0.00 | 0.00 | 0.00 | 73 | 1006.5 |
| 20260505012007 | 23 | 171 | 8.0 | 11.3 | 0.00 | 0.00 | 0.00 | 73 | 1006.5 |
| 20260505011524 | 23 | 159 | 6.4 | 16.1 | 0.00 | 0.00 | 0.00 | 72 | 1006.5 |
| 20260505011034 | 23 | 199 | 4.8 | 16.1 | 0.00 | 0.00 | 0.00 | 72 | 1006.6 |
| 20260505010553 | 24 | 178 | 4.8 | 16.1 | 0.00 | 0.00 | 0.00 | 71 | 1006.5 |
| 20260505010046 | 24 | 165 | 8.0 | 16.1 | 0.00 | 0.00 | 0.00 | 71 | 1006.6 |
| 20260505005504 | 24 | 207 | 6.4 | 19.3 | 0.00 | 0.00 | 0.00 | 70 | 1006.6 |
| 20260505005013 | 24 | 189 | 8.0 | 19.3 | 0.00 | 0.00 | 0.00 | 70 | 1006.5 |
| 20260505004527 | 25 | 183 | 8.0 | 19.3 | 0.00 | 0.00 | 0.00 | 69 | 1006.6 |
| 20260505004036 | 25 | 180 | 11.3 | 17.7 | 0.00 | 0.00 | 0.00 | 69 | 1006.5 |
| 20260505003552 | 25 | 146 | 8.0 | 19.3 | 0.00 | 0.00 | 0.00 | 69 | 1006.4 |
| 20260505003005 | 25 | 177 | 9.7 | 19.3 | 0.00 | 0.00 | 0.00 | 68 | 1006.4 |
| 20260505002518 | 25 | 182 | 8.0 | 24.1 | 0.00 | 0.00 | 0.00 | 68 | 1006.3 |
| 20260505002029 | 25 | 193 | 14.5 | 24.1 | 0.00 | 0.00 | 0.00 | 67 | 1006.4 |
| 20260505001545 | 25 | 229 | 11.3 | 25.7 | 0.00 | 0.00 | 0.00 | 67 | 1006.4 |
| 20260505001058 | 25 | 203 | 11.3 | 22.5 | 0.00 | 0.00 | 0.00 | 67 | 1006.4 |
| 20260505001008 | 25 | 159 | 11.3 | 22.5 | 0.00 | 0.00 | 0.00 | 67 | 1006.4 |
| 20260505000518 | 25 | 175 | 11.3 | 25.7 | 0.00 | 0.00 | 0.00 | 66 | 1006.5 |
| 20260505000015 | 25 | 175 | 12.9 | 25.7 | 0.00 | 0.00 | 0.00 | 66 | 1006.4 |